Regional Weather Roundup
Issued by NWS Charleston, SC

Current Version | Previous Version | Graphics & Text | Print | Product List | Glossary On
Versions: 1 2 3 4 5 6 7 8 9 10 11 12 13 14 15 16 17 18 19 20 21 22 23 24 25 26 27 28 29 30 31 32 33 34 35 36 37 38 39 40 41 42 43 44 45 46 47 48 49 50
000 ASUS42 KCHS 292310 RWRCHS REGIONAL WEATHER ROUNDUP NATIONAL WEATHER SERVICE CHARLESTON SC 700 PM EDT TUE JUL 29 2014 NOTE: "FAIR" INDICATES FEW OR NO CLOUDS BELOW 12,000 FEET WITH NO SIGNIFICANT WEATHER AND/OR OBSTRUCTIONS TO VISIBILITY. NOT ALL STATIONS ARE QUALITY CONTROLLED BY THE NATIONAL WEATHER SERVICE. USE DATA WITH CAUTION...ESPECIALLY DEWPOINT OBSERVATIONS. SCZ027-030-031-034>040-042>050-300000- ...SOUTH CAROLINA... CITY SKY/WX TMP DP RH WIND PRES REMARKS N CHARLESTON MOSUNNY 89 63 41 N6 29.90R HX 90 WATERFRONT PRK N/A 84 N/A N/A S6 N/A FORT JOHNSON NOT AVBL MOUNT PLEASANT FAIR 82 73 74 CALM 29.90S JOHNS ISLAND CLEAR 84 72 65 CALM 29.90S PINOPOLIS N/A 90 63 40 N6 29.83S HX 90 MONCKS CORNER N/A 88 66 48 N6 29.90S HX 90 SUMMERVILLE FAIR 86 64 48 N3 29.91S BEAUFORT MCAS MOSUNNY 88 62 41 NE7 29.90R BEAUFORT ARPT FAIR 88 64 45 CALM 29.89S HILTON HEAD IS MOSUNNY 84 73 70 CALM 29.91S HX 91 GEORGETOWN NOT AVBL WALTERBORO N/A 86 59 39 CALM 29.91R ORANGEBURG PTSUNNY 87 56 34 NW3 29.91S BARNWELL FAIR 86 61 42 NE6 29.91S AIKEN FAIR 86 61 42 CALM 29.95S MANNING FAIR 88 64 45 CALM 29.91S KINGSTREE NOT AVBL COLUMBIA MOSUNNY 89 53 29 W10 29.91S SUMTER SUNNY 85 60 41 N7 29.90S FLORENCE MOSUNNY 83 63 50 N7 29.91S MYRTLE BEACH PTSUNNY 84 64 51 S8 29.90S N MYRTLE BEACH MOSUNNY 84 67 56 S3 29.90S $$ GAZ063-065-086>088-099>101-113>116-118-119-134-136>141-150-300000- ...GEORGIA... CITY SKY/WX TMP DP RH WIND PRES REMARKS SAVANNAH ARPT MOSUNNY 90 59 35 N9 29.90R HUNTER AAF CLOUDY 86 73 63 VRB2 29.88R HX 93 FORT STEWART SUNNY 89 62 40 N7 29.89R STATESBORO NOT AVBL SYLVANIA CLEAR 87 66 48 NW5 29.92S CLAXTON FAIR 88 66 48 CALM 29.91R HX 90 THOMSON PTSUNNY 85 67 54 CALM 29.97S AUGUSTA-BUSH MOSUNNY 87 57 35 W6 29.90S AUGUSTA-DANIEL MOSUNNY 86 58 38 NW8 29.93S SWAINSBORO MOCLDY 88 63 42 NW8 29.93R VIDALIA N/A 88 59 37 NW8 29.92R ALMA SUNNY 90 56 31 NW10 29.91R WAYCROSS PTSUNNY 93 63 35 NW9 29.90S HX 94 JESUP FAIR 93 63 36 N8 29.90R HX 94 BRUNSWICK PTSUNNY 88 68 51 E9 29.90R HX 91 SAINT SIMONS SUNNY 86 70 58 E10 29.89R HX 90 $$ SCZ027-028-034-036>038-045-046-048>050-GAZ119-141-300000- ...LAKE AND SUPPLEMENTAL COASTAL OBSERVATIONS... STATION/POSITION TIME TEMP WIND PRES WAVE SWELL AIR SEA DIR/SP/G HT/PER HT/PER/DIR (UTC) (F) (DEG/KT/KT) (MB) (FT/S) (FT/S/D) UPR LAKE MARION NOT AVBL WINYAH BAY 2200 82 110/ 5 1012.0S LAKE MURRAY 2200 85 80/ 2/ 4 1012.5S ACE BASIN NERRS 2200 89 100/ 3 1013.0S FORT PULASKI 2300 83 70/ 7/ 8 1012.8R SAPELO ISLAND 2200 88 90/ 7 1013.0S $$ ANZ835-935-AMZ111-154-330-350-352-354-374-450-454-472-300000- ...C-MAN AND BUOY OBSERVATIONS... STATION/POSITION TIME TEMP WIND PRES WAVE SWELL AIR SEA DIR/SP/G HT/PER HT/PER/DIR (UTC) (F) (DEG/KT/KT) (MB) (FT/S) (FT/S/D) FOLLY BEACH CMAN 2200 82 170/ 7/ 8 1012.8R BUOY 41004 2300 81 84 50/ 8/ 10 1011.7F 3/ 5 2/ 5 BUOY 41008 2300 84 86 80/ 6/ 8 1012.2S 2/ 4 2/ 60/ 4 5E ST. MARYS GA 2200 86 N/A 1/ 8 FRYING PAN BUOY NOT AVBL BUOY 41025 2300 VRB 14/ 17 1012.5F 4/ 8 2/140/ 8 CAPE LOOKOUT NC 2200 78 50/ 12/ 13 1012.6F BUOY 41002 2225 81 81 210/ 19/ 23 1012.6R 6/ 7 2/130/15 BUOY 41010 2300 83 84 230/ 14/ 17 1013.2R 4/ 5 2/120/ 8 BUOY 41012 NOT AVBL ST AUGUSTINE FL 2300 84 160/ 8/ 9 1012.9R CAPERS NEARSHORE 2200 84 130/ 8/ 8 N/A FRIPP NEARSHORE NOT AVBL $$

USA.gov is the U.S. government's official web portal to all federal, state and local government web resources and services.